Terminal Aerodrome Forecast
Issued by NWS La Crosse, WI

Home | Current Version | Previous Version | Text Only | Print | Product List | Glossary On
Versions: 1 2 3 4 5 6 7 8 9 10 11 12 13 14 15 16 17 18 19 20 21 22 23 24 25 26 27 28 29 30 31 32 33 34 35 36 37 38 39 40 41 42 43 44 45 46 47 48
000
FTUS43 KARX 201139
TAFLSE
TAF
KLSE 201139Z 2012/2112 12003KT P6SM VCFG SCT004
      TEMPO 2012/2014 1/2SM FG BKN004
     FM201500 VRB03KT P6SM SCT008
     FM201700 VRB03KT P6SM SCT200
     FM210300 10003KT P6SM VCSH BKN100
     FM210700 13004KT P6SM -SHRA VCTS BKN040CB=

USA.gov is the U.S. government's official web portal to all federal, state and local government web resources and services.